Location: Orange Harbor Mobile Home Park
(26.6923°N, 81.7937°W)
Time: 23:18:54
(UTC+00:00)

Cosmos 1867 - Pass Details

Date: 19 September 2020
Orbit: 777 x 799 km, 65.0° (Epoch: 25 October)

Event Time Altitude Azimuth Distance (km) Brightness Sun altitude
Rises 01:14:50 0° 342° (NNW) 3,302 7.2 -24.5°
Reaches altitude 10° 01:17:23 10° 349° (N) 2,369 6.3 -25.1°
Enters shadow 01:21:24 39° 27° (NNE) 1,186 4.3 -25.9°
